Weather History for Wichita, KS

Change the Weather History Date:

Thursday, February 28, 2013

  Actual Average Record
Temperature  
Mean Temperature 31 °F 41 °F  
Max Temperature 36 °F 52 °F 78 °F (2006)
Min Temperature 26 °F 30 °F 0 °F (1890)
Degree Days  
Heating Degree Days 34 24  
Month to date heating degree days 816 779  
Since 1 July heating degree days 3271 3640  
Cooling Degree Days 0 0  
Month to date cooling degree days 0 0  
Year to date cooling degree days 0 0  
Moisture  
Dew Point 25 °F    
Average Humidity 78    
Maximum Humidity 85    
Minimum Humidity 70    
Precipitation  
Precipitation 0.00 in 0.05 in 1.10 in (1987)
Month to date precipitation 2.45 1.18  
Year to date precipitation 3.02 2.01  
Snow  
Snow 0.00 in 0.10 in 5.60 in (1911)
Month to date snowfall 21.2 3.2  
Since 1 July snowfall 24.5 12.4  
Snow Depth 5.00 in    
Sea Level Pressure  
Sea Level Pressure 30.24 in    
Wind  
Wind Speed 12 mph (NNW)    
Max Wind Speed 21 mph    
Max Gust Speed 26 mph    
Visibility 10 miles    
Events      
T = Trace of Precipitation, MM = Missing Value Source: NWS Daily Summary

Daily Weather History Graph

Daily Weather History Graph

Search for Another Location

Airport:

Trip Planner

Search our weather history database for the weather conditions in past years. The results will help you decide how hot, cold, wet, or windy it might be!

Date:

Astronomy

Feb. 28, 2013 Rise Set
Actual Time 7:02 AM CST 6:22 PM CST
Civil Twilight 6:35 AM CST 6:49 PM CST
Nautical Twilight 6:05 AM CST 7:19 PM CST
Astronomical Twilight 5:35 AM CST 7:49 PM CST
Moon 9:46 PM CST (2/28) 8:16 AM CST (2/28)
Length of Visible Light 12h 13m
Length of Day
11h 20m
Waning Gibbous, 90% of the Moon is Illuminated
Feb 28
Waning Gibbous
Mar 4
Last Quarter
Mar 11
New
Mar 19
First Quarter
Mar 27
Full

Hourly Weather History & Observations

Time (CST) Temp. Windchill Dew Point Humidity Pressure Visibility Wind Dir Wind Speed Gust Speed Precip Events Conditions
12:53 AM 28.4 °F 18.5 °F 24.8 °F 86% 30.17 in 10.0 mi NW 11.5 mph - N/A   Partly Cloudy
1:53 AM 27.0 °F 17.3 °F 23.0 °F 85% 30.21 in 10.0 mi NW 10.4 mph - N/A   Partly Cloudy
2:53 AM 27.0 °F 15.6 °F 21.9 °F 81% 30.21 in 10.0 mi NW 13.8 mph - N/A   Scattered Clouds
3:53 AM 27.0 °F 17.3 °F 21.9 °F 81% 30.22 in 10.0 mi NW 10.4 mph - N/A   Scattered Clouds
4:53 AM 27.0 °F 16.1 °F 21.9 °F 81% 30.22 in 10.0 mi WNW 12.7 mph - N/A   Mostly Cloudy
5:53 AM 26.1 °F 15.0 °F 21.0 °F 81% 30.23 in 10.0 mi NW 12.7 mph - N/A   Mostly Cloudy
6:53 AM 28.9 °F 18.2 °F 23.0 °F 78% 30.23 in 10.0 mi NW 13.8 mph - N/A   Mostly Cloudy
7:50 AM 28.4 °F 19.1 °F 23.0 °F 80% 30.20 in 10.0 mi NW 10.4 mph - N/A   Mostly Cloudy
7:53 AM 28.4 °F 19.1 °F 23.0 °F 80% 30.20 in 10.0 mi NW 10.4 mph - N/A   Mostly Cloudy
8:25 AM 30.2 °F 21.3 °F 24.8 °F 80% 30.21 in 10.0 mi NNW 10.4 mph - N/A   Mostly Cloudy
8:53 AM 30.9 °F 21.2 °F 25.0 °F 79% 30.25 in 10.0 mi NNW 12.7 mph - N/A   Mostly Cloudy
9:53 AM 34.0 °F 23.8 °F 27.0 °F 75% 30.26 in 10.0 mi NNW 16.1 mph 24.2 mph N/A   Mostly Cloudy
10:53 AM 35.1 °F 24.1 °F 27.0 °F 72% 30.26 in 10.0 mi North 19.6 mph 25.3 mph N/A   Mostly Cloudy
11:53 AM 35.1 °F 25.5 °F 27.0 °F 72% 30.27 in 10.0 mi NNW 15.0 mph - N/A   Mostly Cloudy
12:53 PM 35.1 °F 26.4 °F 27.0 °F 72% 30.27 in 10.0 mi NW 12.7 mph - N/A   Overcast
1:53 PM 35.1 °F 24.8 °F 27.0 °F 72% 30.26 in 10.0 mi NNW 17.3 mph - N/A   Overcast
2:53 PM 35.1 °F 24.8 °F 27.0 °F 72% 30.25 in 10.0 mi NW 17.3 mph 21.9 mph N/A   Overcast
3:53 PM 35.1 °F 26.4 °F 27.0 °F 72% 30.26 in 10.0 mi NNW 12.7 mph - N/A   Overcast
4:53 PM 34.0 °F 26.6 °F 27.0 °F 75% 30.25 in 10.0 mi NNW 9.2 mph - N/A   Overcast
5:53 PM 34.0 °F 26.0 °F 27.0 °F 75% 30.25 in 10.0 mi North 10.4 mph - N/A   Overcast
6:53 PM 34.0 °F 26.0 °F 26.1 °F 73% 30.26 in 9.0 mi NNW 10.4 mph - N/A   Overcast
7:53 PM 34.0 °F 25.5 °F 26.1 °F 73% 30.27 in 9.0 mi NNW 11.5 mph - N/A   Overcast
8:53 PM 34.0 °F 26.0 °F 26.1 °F 73% 30.27 in 10.0 mi NNW 10.4 mph - N/A   Overcast
9:53 PM 34.0 °F 26.6 °F 26.1 °F 73% 30.27 in 10.0 mi North 9.2 mph - N/A   Overcast
10:53 PM 33.1 °F 24.9 °F 26.1 °F 75% 30.27 in 10.0 mi North 10.4 mph - N/A   Overcast
11:53 PM 33.8 °F 26.4 °F 26.6 °F 75% 30.23 in 8.0 mi North 9.2 mph - N/A   Overcast